[ hide orbit diagram ]
For accurate long-term ephemerides, please instead use our Horizons system.This orbit viewer was implemented using two-body methods, and hence should not be used for determining accurate long-term trajectories (over several years or decades) or planetary encounter circumstances.
Orbital Elements at Epoch 2459000.5 (2020-May-31.0) TDB
Reference: JPL 24 (heliocentric ecliptic J2000)
Element | Value | Uncertainty (1-sigma) | Units |
e | .1857340061871354 | 5.2307e-08 | |
a | 2.318951703768875 | 8.0543e-09 | au |
q | 1.888243513673399 | 1.2342e-07 | au |
i | 23.39144056008384 | 4.853e-06 | deg |
node | 229.9597314088015 | 9.4411e-06 | deg |
peri | 336.4630936726118 | 1.3377e-05 | deg |
M | 309.5803747025874 | 1.0588e-05 | deg |
tp | 2459181.147974150030 (2020-Nov-27.64797415) | 3.8323e-05 | TDB |
period | 1289.840420479052 3.53 | 6.7199e-06 1.84e-08 | d yr |
n | .2791042940539067 | 1.4541e-09 | deg/d |
Q | 2.749659893864351 | 9.5502e-09 | au |
|
| | Orbit Determination Parameters
Additional Information
|
[ show covariance matrix ]
Physical Parameter Table
Parameter |
Symbol |
Value |
Units |
Sigma |
Reference |
Notes |
absolute magnitude |
H |
14.8 |
|
n/a |
MPO359142 |
|
diameter |
diameter |
2.760 |
km |
0.079 |
urn:nasa:pds:neowise_diameters_albedos::2.0[mainbelt] (http://adsabs.harvard.edu/abs/2011ApJ...741...68M) |
|
geometric albedo |
albedo |
0.356 |
|
0.047 |
urn:nasa:pds:neowise_diameters_albedos::2.0[mainbelt] (http://adsabs.harvard.edu/abs/2011ApJ...741...68M) |
|
|
58450 (1996 JB1) Discovered 1996-May-13 by NEAT at Haleakala |
Reference: 20030614/Numbers.arc | Last Updated: 2004-04-19 |
|
|